This is the latest recevied weather packets stored in our database for station/object KD5FHA. If no packets are shown the sender has not sent any weather packets the latest 10 day(s).
| Time | Temp. | Humidity | Pressure | Rain* | Wind** | Luminosity | Snow |
|---|---|---|---|---|---|---|---|
| 1777654095 | 16.11° C | 63% | 1017.5 hPa | 0 mm | - | 263 W/m² | - |
| 1777653793 | 16.11° C | 61% | 1017.6 hPa | 0 mm | - | 381 W/m² | - |
| 1777653488 | 16.11° C | 63% | 1017.5 hPa | 0 mm | - | 368 W/m² | - |
| 1777653186 | 16.11° C | 66% | 1017.5 hPa | 0 mm | - | 422 W/m² | - |
| 1777652881 | 15.56° C | 69% | 1017.2 hPa | 0 mm | - | 407 W/m² | - |
| 1777652579 | 15.56° C | 72% | 1017.3 hPa | 0 mm | - | 247 W/m² | - |
| 1777652275 | 15.56° C | 72% | 1017.8 hPa | 0 mm | - | 190 W/m² | - |
| 1777651973 | 15.56° C | 74% | 1017.5 hPa | 0 mm | - | 257 W/m² | - |
| 1777651669 | 15.56° C | 74% | 1017.4 hPa | 0 mm | - | 238 W/m² | - |
| 1777651366 | 15° C | 75% | 1017.2 hPa | 0 mm | - | 212 W/m² | - |
| 1777651063 | 15° C | 75% | 1017.3 hPa | 0 mm | - | 146 W/m² | - |
| 1777650760 | 15° C | 77% | 1017.3 hPa | 0 mm | - | 141 W/m² | - |
| 1777650457 | 15° C | 78% | 1017.3 hPa | 0 mm | - | 166 W/m² | - |
| 1777650154 | 15° C | 80% | 1017.3 hPa | 0 mm | - | 184 W/m² | - |
| 1777649852 | 15° C | 79% | 1017.5 hPa | 0 mm | - | 164 W/m² | - |
| 1777649549 | 14.44° C | 78% | 1017.2 hPa | 0 mm | - | 161 W/m² | - |
| 1777649245 | 14.44° C | 78% | 1017.2 hPa | 0 mm | - | 135 W/m² | - |
| 1777648942 | 14.44° C | 79% | 1017.5 hPa | 0 mm | - | 135 W/m² | - |
| 1777648640 | 14.44° C | 79% | 1017.8 hPa | 0 mm | - | 115 W/m² | - |
| 1777648336 | 14.44° C | 79% | 1017.9 hPa | 0 mm | - | 72 W/m² | - |
| 1777648032 | 14.44° C | 79% | 1017.7 hPa | 0 mm | - | 45 W/m² | - |
| 1777647728 | 14.44° C | 79% | 1017.2 hPa | 0 mm | - | 70 W/m² | - |
| 1777647425 | 14.44° C | 80% | 1016.8 hPa | 0 mm | - | 80 W/m² | - |
| 1777647123 | 14.44° C | 79% | 1016.7 hPa | 0 mm | - | 91 W/m² | - |
| 1777646819 | 15° C | 80% | 1016.5 hPa | 0 mm | - | 97 W/m² | - |
* Rain latest hour (hover to see other rain measurements)
** Current wind speed in m/s (hover to see current wind gust speed)